Weather History for Eugene, OR

Change the Weather History Date:

Thursday, May 2, 2013

  Actual Average Record
Temperature  
Mean Temperature 58 °F 53 °F  
Max Temperature 78 °F 64 °F 87 °F (1946)
Min Temperature 37 °F 41 °F 31 °F (2001)
Degree Days  
Heating Degree Days 7 12  
Month to date heating degree days 21 24  
Since 1 July heating degree days 4041 4366  
Cooling Degree Days 0 0  
Month to date cooling degree days 0 0  
Year to date cooling degree days 0 0  
Growing Degree Days 8 (Base 50)    
Moisture  
Dew Point 41 °F    
Average Humidity 57    
Maximum Humidity 85    
Minimum Humidity 28    
Precipitation  
Precipitation 0.00 in 0.09 in 0.86 in (1896)
Month to date precipitation 0.00 0.18  
Year to date precipitation 6.54 20.80  
Snow  
Snow 0.00 in - - ()
Month to date snowfall 0.0  
Since 1 July snowfall 0.0  
Snow Depth 0.00 in    
Sea Level Pressure  
Sea Level Pressure 30.32 in    
Wind  
Wind Speed 7 mph (NNE)    
Max Wind Speed 16 mph    
Max Gust Speed 20 mph    
Visibility 10 miles    
Events      
T = Trace of Precipitation, MM = Missing Value Source: NWS Daily Summary

Daily Weather History Graph

Daily Weather History Graph

Search for Another Location

Airport:

Trip Planner

Search our weather history database for the weather conditions in past years. The results will help you decide how hot, cold, wet, or windy it might be!

Date:

Astronomy

May. 02, 2013 Rise Set
Actual Time 6:02 AM PDT 8:18 PM PDT
Civil Twilight 5:30 AM PDT 8:50 PM PDT
Nautical Twilight 4:50 AM PDT 9:29 PM PDT
Astronomical Twilight 4:07 AM PDT 10:14 PM PDT
Moon 2:08 AM PDT (5/2) 12:58 PM PDT (5/2)
Length of Visible Light 15h 19m
Length of Day
14h 15m
Waning Gibbous, 46% of the Moon is Illuminated
May 2
Waning Gibbous
May 9
New
May 17
First Quarter
May 24
Full
May 31
Last Quarter

Hourly Weather History & Observations

Time (PDT) Temp. Windchill Dew Point Humidity Pressure Visibility Wind Dir Wind Speed Gust Speed Precip Events Conditions
12:54 AM 46.9 °F - 37.0 °F 68% 30.42 in 10.0 mi Calm Calm - N/A   Clear
1:54 AM 46.0 °F 44.8 °F 37.0 °F 71% 30.40 in 10.0 mi ENE 3.5 mph - N/A   Clear
2:54 AM 39.0 °F - 35.1 °F 86% 30.40 in 10.0 mi Calm Calm - N/A   Clear
3:54 AM 43.0 °F 40.3 °F 37.0 °F 80% 30.40 in 10.0 mi North 4.6 mph - N/A   Clear
4:54 AM 39.9 °F - 34.0 °F 79% 30.40 in 10.0 mi Calm Calm - N/A   Clear
5:54 AM 43.0 °F 41.3 °F 35.1 °F 74% 30.39 in 10.0 mi North 3.5 mph - N/A   Partly Cloudy
6:54 AM 39.0 °F - 35.1 °F 86% 30.40 in 10.0 mi Calm Calm - N/A   Clear
7:54 AM 48.9 °F - 39.0 °F 69% 30.40 in 10.0 mi Calm Calm - N/A   Partly Cloudy
8:54 AM 54.0 °F - 41.0 °F 62% 30.39 in 10.0 mi North 4.6 mph - N/A   Partly Cloudy
9:54 AM 59.0 °F - 37.0 °F 44% 30.37 in 10.0 mi NNE 12.7 mph - N/A   Partly Cloudy
10:54 AM 62.1 °F - 39.9 °F 44% 30.36 in 10.0 mi NNE 10.4 mph - N/A   Partly Cloudy
11:54 AM 66.0 °F - 44.1 °F 45% 30.35 in 10.0 mi NNE 10.4 mph - N/A   Partly Cloudy
12:54 PM 70.0 °F - 43.0 °F 38% 30.32 in 10.0 mi North 12.7 mph - N/A   Partly Cloudy
1:54 PM 73.0 °F - 43.0 °F 34% 30.31 in 10.0 mi North 13.8 mph - N/A   Partly Cloudy
2:54 PM 75.0 °F - 46.0 °F 36% 30.28 in 10.0 mi North 11.5 mph - N/A   Scattered Clouds
3:54 PM 78.1 °F - 43.0 °F 29% 30.25 in 10.0 mi North 13.8 mph - N/A   Mostly Cloudy
4:54 PM 75.0 °F - 46.0 °F 36% 30.25 in 10.0 mi NNE 11.5 mph - N/A   Mostly Cloudy
5:54 PM 73.9 °F - 46.9 °F 38% 30.24 in 10.0 mi NNE 12.7 mph - N/A   Mostly Cloudy
6:54 PM 70.0 °F - 53.1 °F 55% 30.23 in 10.0 mi North 4.6 mph - N/A   Mostly Cloudy
7:54 PM 63.0 °F - 46.9 °F 56% 30.23 in 10.0 mi NNE 8.1 mph - N/A   Mostly Cloudy
8:54 PM 60.1 °F - 44.1 °F 55% 30.23 in 10.0 mi NNW 8.1 mph - N/A   Scattered Clouds
9:54 PM 53.1 °F - 44.1 °F 71% 30.25 in 10.0 mi East 3.5 mph - N/A   Partly Cloudy
10:54 PM 51.1 °F - 42.1 °F 71% 30.25 in 10.0 mi North 4.6 mph - N/A   Clear
11:54 PM 53.1 °F - 43.0 °F 69% 30.26 in 10.0 mi East 4.6 mph - N/A   Clear